[[{"header":{"parameterUnit":"m.s-1","parameterCategory":1,"la1":30.2991,"la2":30.254,"lo1":-89.0895,"lo2":-89.0444,"dy":0.0017,"dx":0.0017,"nx":28,"ny":28,"refTime":"2026-03-04T09:00:00:Z","depth":0,"parameterNumber":2,"parameterNumberName":"U-component_of_WINDS"},"data":[0,0,0,0,0,0,0,0,0,0,0,0,0,0,0,0,0,0,0,0,0,0,0,0,0,0,0,0,0,0,0,0,0,0,0,0,0,0,0,0,0,0,0,0,0,0,0,0,0,0,0,0,0,0,0,0,0,0,-3.2391,-3.2391,0,-3.2348,-3.2348,-3.2347,-3.2271,-3.2269,-3.2268,-3.2267,-3.2222,-3.2222,-3.2222,0,0,0,0,0,0,0,0,0,0,0,0,0,-3.2409,-3.2409,-3.2391,-3.2391,-3.239,-3.2348,-3.2348,-3.2347,-3.2271,-3.2269,-3.2268,-3.2266,-3.2222,-3.2222,-3.2222,0,0,0,0,0,0,0,0,0,0,0,0,0,-3.2388,-3.2409,-3.2391,-3.2347,-3.2343,-3.2348,-3.2348,-3.2347,-3.2271,-3.2269,-3.2267,-3.2265,-3.2222,-3.2222,-3.2222,-3.2268,0,0,-3.2223,-3.2223,0,0,0,0,0,0,0,0,-3.2389,-3.2387,-3.2354,-3.235,-3.2345,-3.2313,-3.2338,-3.232,-3.2272,-3.2299,-3.2266,-3.2264,-3.2254,-3.2251,-3.2248,-3.2265,-3.2264,-3.2223,-3.2223,-3.2224,-3.2224,0,0,0,0,0,0,0,-3.239,-3.2388,-3.2374,-3.2354,-3.2349,-3.233,-3.2325,-3.2334,-3.2289,-3.2296,-3.229,-3.2286,-3.2251,-3.2248,-3.2247,-3.2263,-3.2223,-3.2223,-3.2224,-3.2224,-3.2316,-3.2319,0,0,0,0,0,0,-3.2398,-3.239,-3.2376,-3.2373,-3.2362,-3.2332,-3.2325,-3.2325,-3.2289,-3.2281,-3.2288,-3.2283,-3.2249,-3.2246,-3.2245,-3.2295,-3.2224,-3.2224,-3.2224,-3.2314,-3.2317,-3.2319,0,0,0,0,0,0,-3.2399,-3.2398,-3.2377,-3.238,-3.2376,-3.2334,-3.2334,-3.2326,-3.2322,-3.2283,-3.2274,-3.2293,-3.2247,-3.2244,-3.2263,-3.2292,-3.2224,-3.2224,-3.2311,-3.2315,-3.2318,-3.2396,0,0,0,0,0,0,-3.24,-3.2398,-3.2414,-3.2381,-3.2376,-3.2396,-3.2336,-3.2326,-3.2323,-3.2316,-3.2285,-3.2278,-3.2245,-3.2263,-3.2263,-3.2291,-3.2224,-3.2308,-3.2313,-3.2317,-3.2391,-3.2402,-3.2411,0,0,0,0,0,-3.2401,-3.2438,-3.2416,-3.2414,-3.2395,-3.2398,-3.2395,-3.2356,-3.2326,-3.2342,-3.2317,-3.2279,-3.229,-3.2265,-3.2265,-3.2294,-3.2306,-3.2312,-3.2317,-3.2386,-3.24,-3.2411,0,0,0,0,0,0,-3.2475,-3.2432,-3.2407,-3.2435,-3.2421,-3.2385,-3.2403,-3.2372,-3.2365,-3.2359,-3.2311,-3.2305,-3.233,-3.2314,-3.2287,-3.2336,-3.2292,-3.2298,-3.2345,-3.2358,-3.2368,-3.237,-3.2225,0,0,0,0,0,-3.2495,-3.25,-3.2463,-3.2491,-3.2485,-3.2446,-3.2445,-3.2417,-3.24,-3.2394,-3.237,-3.2355,-3.2355,-3.2356,-3.2354,-3.2389,-3.2381,-3.2409,-3.242,-3.2428,-3.2433,-3.2451,-3.2463,-3.2337,-3.2336,-3.2336,0,0,-3.2535,-3.2513,-3.2519,-3.2505,-3.249,-3.2497,-3.2441,-3.245,-3.2455,-3.2395,-3.241,-3.2393,-3.2374,-3.2401,-3.2412,-3.2389,-3.2467,-3.2435,-3.2442,-3.2442,-3.2458,-3.247,-3.248,-3.234,-3.2339,-3.2339,0,0,-3.2612,-3.2596,-3.2617,-3.2604,-3.2584,-3.2558,-3.2564,-3.2533,-3.252,-3.2535,-3.249,-3.2496,-3.2497,-3.2485,-3.2479,-3.2556,-3.252,-3.2557,-3.2609,-3.2628,-3.2638,-3.2646,-3.2673,-3.2683,-3.2562,-3.2562,-3.2562,0,-3.2664,-3.2672,-3.2632,-3.2644,-3.264,-3.2588,-3.2609,-3.2599,-3.2579,-3.2578,-3.2552,-3.2554,-3.2537,-3.2561,-3.258,-3.2577,-3.2582,-3.2558,-3.264,-3.2648,-3.2655,-3.268,-3.269,-3.2566,-3.2566,-3.2565,-3.2565,0,-3.2738,-3.2744,-3.2764,-3.2747,-3.2745,-3.2762,-3.2725,-3.2729,-3.2702,-3.2679,-3.2697,-3.2675,-3.2668,-3.2673,-3.2646,-3.2694,-3.268,-3.2648,-3.2602,-3.2672,-3.2695,-3.2704,-3.2572,-3.2571,-3.257,-3.2568,0,0,-3.2856,-3.2818,-3.2826,-3.2818,-3.2793,-3.2798,-3.2814,-3.2807,-3.2811,-3.28,-3.2812,-3.2816,-3.2787,-3.2781,-3.2753,-3.277,-3.2831,-3.2736,-3.2734,-3.2753,-3.2882,-3.2905,-3.2916,-3.2809,-3.2811,-3.2812,-3.2883,0,-3.2926,-3.2949,-3.2915,-3.2947,-3.2953,-3.2906,-3.292,-3.2906,-3.2887,-3.2889,-3.2868,-3.2871,-3.2833,-3.2829,-3.2843,-3.282,-3.2856,-3.2815,-3.2819,-3.282,-3.2823,-3.2928,-3.2951,-3.3019,-3.2892,-3.2893,-3.2895,0,-3.3009,-3.3003,-3.3036,-3.301,-3.3012,-3.3025,-3.3017,-3.3021,-3.3005,-3.299,-3.2985,-3.2953,-3.2967,-3.2925,-3.2945,-3.2918,-3.2918,-3.2908,-3.291,-3.2906,-3.286,-3.2926,-3.304,-3.305,-3.2908,-3.2907,-3.2906,0,-3.3091,-3.3091,-3.3111,-3.3106,-3.3077,-3.3087,-3.3076,-3.3059,-3.3058,-3.3052,-3.3051,-3.3047,-3.3045,-3.3043,-3.3011,-3.2983,-3.3035,-3.299,-3.3022,-3.3023,-3.3032,-3.3032,-3.3146,-3.3036,-3.3036,-3.3036,-3.3036,0,-3.3171,-3.3192,-3.3147,-3.3159,-3.3183,-3.3145,-3.3169,-3.3153,-3.3139,-3.3147,-3.3107,-3.3115,-3.3074,-3.3078,-3.3054,-3.3074,-3.3073,-3.3061,-3.3054,-3.3064,-3.3065,-3.3061,-3.3055,-3.3038,-3.3038,-3.3037,-3.3037,0,-3.3265,-3.3235,-3.3254,-3.3226,-3.322,-3.3238,-3.3215,-3.3225,-3.3204,-3.3216,-3.3216,-3.3184,-3.3187,-3.3156,-3.3154,-3.3138,-3.3169,-3.3154,-3.3174,-3.3168,-3.3202,-3.3198,-3.3316,-3.3329,-3.3213,-3.3214,-3.3215,0,-3.3316,-3.3332,-3.3307,-3.331,-3.3301,-3.3306,-3.3305,-3.327,-3.3271,-3.3257,-3.3269,-3.327,-3.3268,-3.3277,-3.3253,-3.3251,-3.3235,-3.3277,-3.3235,-3.3244,-3.3235,-3.3233,-3.3235,-3.3285,-3.3286,-3.3288,-3.3288,0,-3.3411,-3.3397,-3.3397,-3.3394,-3.3394,-3.339,-3.3382,-3.3387,-3.3349,-3.3353,-3.3356,-3.3355,-3.3354,-3.3355,-3.335,-3.3339,-3.3307,-3.3303,-3.331,-3.3318,-3.3328,-3.3322,-3.3196,-3.3299,-3.3298,-3.3297,-3.3297,-3.3296,-3.3484,-3.3496,-3.3481,-3.3484,-3.3475,-3.347,-3.3478,-3.346,-3.3462,-3.3458,-3.3438,-3.3446,-3.3432,-3.3422,-3.3414,-3.342,-3.34,-3.341,-3.3413,-3.3415,-3.3421,-3.333,-3.3419,-3.3419,-3.3418,-3.3418,-3.3418,0,-3.3576,-3.3565,-3.3568,-3.3559,-3.3562,-3.3534,-3.3525,-3.3529,-3.3537,-3.3527,-3.3527,-3.3532,-3.3534,-3.3512,-3.3511,-3.352,-3.3506,-3.3521,-3.3519,-3.3517,-3.3439,-3.3433,-3.3533,-3.3533,-3.3533,-3.3533,-3.3533,-3.3533,-3.3624,-3.3642,-3.3627,-3.3642,-3.363,-3.3638,-3.3635,-3.3631,-3.3623,-3.3631,-3.3632,-3.3618,-3.3604,-3.3602,-3.3603,-3.3597,-3.3598,-3.3617,-3.3606,-3.3533,-3.3522,-3.3511,-3.3505,-3.3618,-3.3619,-3.3683,-3.3683,-3.3684]},{"header":{"parameterUnit":"m.s-1","parameterCategory":1,"la1":30.2991,"la2":30.254,"lo1":-89.0895,"lo2":-89.0444,"dy":0.0017,"dx":0.0017,"nx":28,"ny":28,"refTime":"2026-03-04T09:00:00:Z","depth":0,"parameterNumber":3,"parameterNumberName":"V-component_of_WINDS"},"data":[0,0,0,0,0,0,0,0,0,0,0,0,0,0,0,0,0,0,0,0,0,0,0,0,0,0,0,0,0,0,0,0,0,0,0,0,0,0,0,0,0,0,0,0,0,0,0,0,0,0,0,0,0,0,0,0,0,0,1.0242,1.0242,0,1.0267,1.0267,1.0268,1.0316,1.0317,1.0318,1.0319,1.034,1.0339,1.0339,0,0,0,0,0,0,0,0,0,0,0,0,0,1.0234,1.0233,1.0242,1.0242,1.0243,1.0267,1.0267,1.0268,1.0316,1.0317,1.0318,1.0319,1.034,1.0339,1.0339,0,0,0,0,0,0,0,0,0,0,0,0,0,1.0246,1.0233,1.0242,1.027,1.0273,1.0267,1.0267,1.0268,1.0316,1.0317,1.0319,1.032,1.034,1.0339,1.0339,1.0307,0,0,1.0337,1.0337,0,0,0,0,0,0,0,0,1.0245,1.0246,1.0265,1.0268,1.0271,1.029,1.0272,1.0281,1.0315,1.0299,1.0319,1.0321,1.0322,1.0323,1.0324,1.0308,1.0308,1.0337,1.0337,1.0337,1.0337,0,0,0,0,0,0,0,1.0244,1.0245,1.0252,1.0266,1.0269,1.028,1.0284,1.0274,1.0302,1.0301,1.0304,1.0307,1.0323,1.0324,1.0325,1.0309,1.0337,1.0337,1.0336,1.0336,1.027,1.0269,0,0,0,0,0,0,1.024,1.0244,1.0251,1.0253,1.0261,1.0279,1.0283,1.0282,1.0302,1.0307,1.0306,1.0309,1.0325,1.0325,1.0326,1.0292,1.0337,1.0336,1.0336,1.0271,1.027,1.0268,0,0,0,0,0,0,1.0239,1.024,1.025,1.0249,1.0252,1.0278,1.0277,1.0282,1.0283,1.0306,1.0311,1.0302,1.0326,1.0327,1.0312,1.0293,1.0336,1.0335,1.0273,1.0271,1.0269,1.0221,0,0,0,0,0,0,1.0239,1.0239,1.0228,1.0249,1.0251,1.0236,1.0276,1.0282,1.0283,1.0288,1.0304,1.0308,1.0327,1.0313,1.0312,1.0293,1.0335,1.0275,1.0272,1.027,1.0225,1.0218,1.0212,0,0,0,0,0,1.0238,1.0212,1.0227,1.0227,1.0238,1.0235,1.0237,1.0261,1.0281,1.027,1.0285,1.0307,1.0295,1.0311,1.031,1.0291,1.0276,1.0273,1.027,1.0227,1.0219,1.0212,0,0,0,0,0,0,1.0185,1.0215,1.0232,1.0212,1.0221,1.0244,1.023,1.0251,1.0253,1.0257,1.0286,1.0289,1.0271,1.0279,1.0296,1.0262,1.0289,1.0286,1.0257,1.025,1.0243,1.0242,1.0335,0,0,0,0,0,1.0171,1.0168,1.0194,1.0173,1.0177,1.0203,1.0202,1.0221,1.0231,1.0234,1.0248,1.0256,1.0254,1.0252,1.0252,1.0226,1.0231,1.0213,1.0206,1.0201,1.0197,1.0187,1.0179,1.0258,1.0258,1.0258,0,0,1.0142,1.0158,1.0154,1.0163,1.0172,1.0168,1.0205,1.0198,1.0195,1.0233,1.0221,1.0231,1.0242,1.0223,1.0215,1.0229,1.0177,1.0197,1.0192,1.0192,1.0183,1.0175,1.0169,1.0255,1.0256,1.0256,0,0,1.0087,1.0098,1.0084,1.0093,1.0108,1.0126,1.0122,1.0142,1.0152,1.0141,1.017,1.0166,1.0161,1.0169,1.0172,1.0123,1.0144,1.0122,1.0088,1.0077,1.0071,1.0066,1.005,1.0043,1.0118,1.0118,1.0118,0,1.0048,1.0044,1.0073,1.0066,1.0069,1.0106,1.0091,1.0098,1.0111,1.0113,1.0129,1.0127,1.0136,1.012,1.0109,1.0109,1.0107,1.012,1.007,1.0065,1.006,1.0045,1.0039,1.0115,1.0116,1.0116,1.0116,0,0.9997,0.9994,0.998,0.9995,0.9997,0.9985,1.0012,1.0011,1.003,1.0045,1.0035,1.0048,1.0052,1.0049,1.0066,1.0036,1.0045,1.0065,1.0093,1.005,1.0036,1.0031,1.0111,1.0112,1.0113,1.0114,0,0,0.9907,0.9941,0.9935,0.9944,0.9964,0.9961,0.9952,0.9958,0.9957,0.9965,0.9959,0.9956,0.9976,0.9979,0.9998,0.9988,0.9951,1.001,1.0011,1.0,0.9921,0.9906,0.9899,0.9965,0.9964,0.9963,0.992,0,0.9857,0.9846,0.9873,0.9854,0.9852,0.9888,0.988,0.9891,0.9906,0.9906,0.9922,0.9921,0.9946,0.9949,0.9941,0.9957,0.9935,0.996,0.9959,0.9959,0.9957,0.9892,0.9876,0.9834,0.9915,0.9914,0.9913,0,0.9797,0.9806,0.9787,0.9812,0.9812,0.9805,0.9814,0.9813,0.9827,0.9839,0.9845,0.9867,0.986,0.9887,0.9878,0.9895,0.9896,0.9904,0.9903,0.9904,0.9934,0.9892,0.9821,0.9815,0.9905,0.9906,0.9906,0,0.9736,0.9742,0.9733,0.9739,0.9766,0.9761,0.9771,0.9787,0.979,0.9798,0.98,0.9805,0.9809,0.9812,0.9836,0.9854,0.9825,0.9853,0.9834,0.9834,0.9826,0.9827,0.9756,0.9826,0.9826,0.9826,0.9826,0,0.9678,0.9666,0.9707,0.9701,0.9688,0.972,0.9706,0.972,0.9735,0.9732,0.9762,0.9759,0.979,0.979,0.9809,0.9799,0.98,0.9809,0.9814,0.9807,0.9806,0.9808,0.9812,0.9824,0.9825,0.9825,0.9825,0,0.9607,0.9634,0.9627,0.9654,0.9661,0.9651,0.9674,0.967,0.9688,0.9685,0.9685,0.9713,0.9715,0.974,0.9746,0.9758,0.9742,0.9752,0.9738,0.9741,0.9722,0.9723,0.965,0.9643,0.9716,0.9716,0.9715,0,0.9569,0.9561,0.9589,0.9591,0.9601,0.9602,0.9607,0.9637,0.964,0.9657,0.9651,0.9656,0.9662,0.9663,0.9683,0.9689,0.97,0.9674,0.9701,0.9694,0.9701,0.9702,0.9702,0.9668,0.9667,0.9666,0.9666,0,0.9498,0.9513,0.9518,0.9529,0.9534,0.9544,0.9555,0.9554,0.9588,0.959,0.9594,0.9598,0.9607,0.9612,0.9621,0.9632,0.9654,0.9657,0.9654,0.9646,0.9639,0.9644,0.9723,0.9659,0.9659,0.966,0.966,0.9661,0.9443,0.9439,0.9459,0.9465,0.9477,0.9488,0.9486,0.9506,0.951,0.9521,0.9538,0.954,0.9556,0.9572,0.9581,0.9582,0.9595,0.9589,0.9588,0.9586,0.9583,0.9639,0.9584,0.9584,0.9584,0.9584,0.9584,0,0.9376,0.9391,0.9397,0.9413,0.9418,0.9441,0.9456,0.9458,0.946,0.9474,0.948,0.9485,0.9491,0.9512,0.952,0.9517,0.9528,0.9518,0.9519,0.9522,0.957,0.9573,0.951,0.951,0.951,0.951,0.951,0.951,0.9341,0.9336,0.9353,0.9355,0.937,0.9374,0.938,0.939,0.9402,0.9407,0.9413,0.9428,0.9445,0.9455,0.9461,0.9468,0.9469,0.9456,0.9466,0.9511,0.9518,0.9525,0.9528,0.9456,0.9456,0.9418,0.9418,0.9417]}]]